User: anonymous   Login
Location: Unspecified
(0.0000°N, 0.0000°E)
Time: 22:11:54
(UTC+00:00)
Language:

N. Korean satellite - Orbit

View from above orbital plane
View from above orbital plane
View from above satellite
View from above satellite

Ground track
Ground track

The orbit data is extracted from the following two-line orbital elements,

1 39026U 12072A   14326.69002060  .00010111  00000-0  50829-3 0  1916
2 39026 097.3087 000.4821 0048918 236.2194 123.4375 15.16377179107378
Epoch (UTC): 22 November 2014 16:33:37
Eccentricity: 0.0048918
inclination: 97.3087°
perigee height: 483 km
apogee height: 550 km
right ascension of ascending node: 0.4821°
argument of perigee: 236.2194°
revolutions per day: 15.16377179
mean anomaly at epoch: 123.4375°
orbit number at epoch: 10737

The dashed part of the orbit path shows where the satellite is in the earth's shadow,  

DLR